GW2838 Weather Reports


Display with metric or nautical units.
time (UTC)temp
F
wind
direction
speed
MPH
gust
MPH
rain 1hr
in
rain 24hr
in
rain mn
in
humidity
%
barometer
mb
20260505025021 67 209 3.0 7.0 0.00 0.00 0.00 47 1033.3
20260505024036 67 209 3.0 7.0 0.00 0.00 0.00 46 1033.5
20260505023032 68 196 2.0 6.0 0.00 0.00 0.00 46 1033.2
20260505022028 68 206 3.0 7.0 0.00 0.00 0.00 46 1033.3
20260505021024 68 191 4.0 9.0 0.00 0.00 0.00 46 1033.1
20260505020021 68 213 3.0 11.0 0.00 0.00 0.00 45 1033.2
20260505015016 68 202 4.0 8.0 0.00 0.00 0.00 45 1033.1
20260505014032 69 188 4.0 9.0 0.00 0.00 0.00 44 1032.9
20260505013028 69 198 3.0 6.0 0.00 0.00 0.00 44 1032.9
20260505012024 69 191 3.0 7.0 0.00 0.00 0.00 43 1032.7
20260505011021 70 192 3.0 8.0 0.00 0.00 0.00 43 1032.8
20260505010016 70 186 4.0 8.0 0.00 0.00 0.00 42 1032.7
20260505005033 71 190 4.0 8.0 0.00 0.00 0.00 42 1032.6
20260505004028 72 174 2.0 6.0 0.00 0.00 0.00 41 1032.4
20260505003025 72 198 3.0 6.0 0.00 0.00 0.00 40 1032.5
20260505002021 72 195 4.0 8.0 0.00 0.00 0.00 40 1032.5
20260505001017 73 192 3.0 7.0 0.00 0.00 0.00 39 1032.4
20260505000033 73 201 6.0 11.0 0.00 0.00 0.00 39 1032.4
20260504235029 73 196 5.0 13.0 0.00 0.00 0.00 38 1032.3
20260504234025 73 193 6.0 13.0 0.00 0.00 0.00 38 1032.2
20260504233022 73 193 6.0 11.0 0.00 0.00 0.00 37 1032.2
20260504232018 74 195 6.0 13.0 0.00 0.00 0.00 37 1032.1
20260504231034 74 207 6.0 21.0 0.00 0.00 0.00 37 1032.1
20260504230030 74 226 7.0 14.0 0.00 0.00 0.00 36 1032.1
20260504225026 75 184 6.0 13.0 0.00 0.00 0.00 36 1032.2
20260504224022 75 191 8.0 19.0 0.00 0.00 0.00 35 1032.2
20260504223058 75 208 5.0 11.0 0.00 0.00 0.00 34 1032.1
20260504222115 76 214 8.0 18.0 0.00 0.00 0.00 35 1032.1
20260504221030 76 224 12.0 27.0 0.00 0.00 0.00 34 1032.2
20260504220026 76 205 9.0 18.0 0.00 0.00 0.00 33 1032.1
20260504215022 76 196 7.0 15.0 0.00 0.00 0.00 33 1032.1
20260504214058 76 196 8.0 19.0 0.00 0.00 0.00 33 1032.0
20260504213035 76 213 6.0 13.0 0.00 0.00 0.00 33 1032.0
20260504212031 77 196 9.0 19.0 0.00 0.00 0.00 33 1032.0
20260504211027 77 191 8.0 15.0 0.00 0.00 0.00 33 1032.0
20260504210043 76 204 7.0 17.0 0.00 0.00 0.00 33 1032.1
20260504205039 76 228 6.0 16.0 0.00 0.00 0.00 33 1032.1
20260504204035 76 198 5.0 11.0 0.00 0.00 0.00 34 1032.1
20260504203031 76 173 8.0 18.0 0.00 0.00 0.00 34 1032.4
20260504202028 76 198 6.0 16.0 0.00 0.00 0.00 33 1032.5
20260504201023 75 195 7.0 13.0 0.00 0.00 0.00 33 1032.7
20260504200019 75 223 7.0 17.0 0.00 0.00 0.00 34 1032.8
20260504195035 75 181 11.0 24.0 0.00 0.00 0.00 33 1032.9
20260504194031 75 213 7.0 15.0 0.00 0.00 0.00 34 1033.0
20260504193107 75 231 7.0 16.0 0.00 0.00 0.00 34 1033.2
20260504192024 75 226 7.0 19.0 0.00 0.00 0.00 34 1033.5
20260504191019 75 217 6.0 14.0 0.00 0.00 0.00 35 1033.7
20260504190016 75 188 8.0 13.0 0.00 0.00 0.00 35 1033.8
20260504185032 75 214 5.0 11.0 0.00 0.00 0.00 35 1033.8
20260504184028 74 198 5.0 16.0 0.00 0.00 0.00 36 1034.0
20260504183024 74 184 6.0 13.0 0.00 0.00 0.00 36 1034.1
20260504182020 74 220 8.0 15.0 0.00 0.00 0.00 36 1034.4
20260504181016 74 181 7.0 17.0 0.00 0.00 0.00 36 1034.5
20260504180033 73 207 5.0 16.0 0.00 0.00 0.00 36 1034.6
20260504175048 74 211 5.0 16.0 0.00 0.00 0.00 36 1034.7
20260504174044 73 197 5.0 14.0 0.00 0.00 0.00 37 1034.7
20260504173020 73 189 7.0 17.0 0.00 0.00 0.00 36 1034.8
20260504172056 72 203 5.0 13.0 0.00 0.00 0.00 36 1035.1
20260504171033 72 228 5.0 13.0 0.00 0.00 0.00 36 1035.3
20260504151022 69 219 3.0 7.0 0.00 0.00 0.00 37 1036.4
20260504141019 70 204 3.0 7.0 0.00 0.00 0.00 38 1036.7
20260504081016 48 0.0 0.0 0.00 0.00 0.00 73 1038.1
20260504050019 46 0.0 0.0 0.00 0.00 0.00 69 1038.3
20260504045035 46 0.0 0.0 0.00 0.00 0.00 68 1038.4
20260504044032 46 0.0 0.0 0.00 0.00 0.00 67 1038.3
20260504043026 46 0.0 0.0 0.00 0.00 0.00 67 1038.4
20260504042022 46 0.0 0.0 0.00 0.00 0.00 67 1038.3
20260504041018 46 0.0 0.0 0.00 0.00 0.00 67 1038.3
20260504040034 46 0.0 0.0 0.00 0.00 0.00 65 1038.4
20260504035030 47 0.0 0.0 0.00 0.00 0.00 64 1038.3
20260504034027 47 281 0.0 1.0 0.00 0.00 0.00 63 1038.2
20260504033022 47 0.0 0.0 0.00 0.00 0.00 63 1038.2
20260504032016 48 0.0 0.0 0.00 0.00 0.00 61 1038.0
20260504031031 48 0.0 0.0 0.00 0.00 0.00 59 1037.9
20260504030046 48 0.0 0.0 0.00 0.00 0.00 58 1037.9